This demonstration page uses our WeatherBlox Daily Observations layout. Learn more.

Left ArrowRight Arrow

39.08367, -84.50855

Hourly Observations for October 10, 2015

Temp ( °F °C ) Dew Point ( °F °C ) Humidity (%) Winds ( mph kmh ) Pressure ( in mb ) Visibility ( mi km ) Precip ( " mm )
12:53 am 00:53 Partly Cloudy 55 12.8 51 10.6 87 87 Calm 30.15 1021 10 16 0.00 0.00
1:53 am 01:53 Clear 53 11.7 50 10 89 89 Calm 30.15 1021 10 16 0.00 0.00
2:53 am 02:53 Partly Cloudy 50 10 50 10 100 100 Calm 30.15 1021 10 16 0.00 0.00
3:53 am 03:53 Clear 49 9.4 48 8.9 97 97 N 5 7 30.16 1021 10 16 0.00 0.00
4:53 am 04:53 Mostly Clear 49 9.4 48 8.9 97 97 Calm 30.17 1022 10 16 0.00 0.00
5:53 am 05:53 Clear 49 9.4 47 8.3 93 93 NNE 7 11 30.18 1022 10 16 0.00 0.00
6:53 am 06:53 Clear 48 8.9 47 8.3 96 96 NE 5 7 30.19 1022 10 16 0.00 0.00
7:53 am 07:53 Sunny 47 8.3 46 7.8 97 97 Calm 30.19 1022 10 16 0.00 0.00
8:53 am 08:53 Sunny 51 10.6 48 8.9 89 89 ENE 5 7 30.20 1023 10 16 0.00 0.00
9:53 am 09:53 Sunny 55 12.8 47 8.3 74 74 ENE 7 11 30.21 1023 10 16 0.00 0.00
10:53 am 10:53 Sunny 59 15 46 7.8 62 62 ENE 8 13 30.20 1023 10 16 0.00 0.00
11:53 am 11:53 Sunny 62 16.7 45 7.2 54 54 NNE 12 19 30.19 1023 10 16 0.00 0.00
12:53 pm 12:53 Sunny 63 17.2 45 7.2 52 52 ENE 10 17 30.19 1022 10 16 0.00 0.00
1:53 pm 13:53 Sunny 65 18.3 44 6.7 47 47 VRB 5 7 30.16 1021 10 16 0.00 0.00
2:53 pm 14:53 Sunny 66 18.9 44 6.7 45 45 ENE 8 13 30.14 1021 10 16 0.00 0.00
3:53 pm 15:53 Sunny 66 18.9 43 6.1 43 43 VRB 5 7 30.11 1020 10 16 0.00 0.00
4:53 pm 16:53 Sunny 67 19.4 41 5 39 39 NNE 5 7 30.10 1019 10 16 0.00 0.00
5:53 pm 17:53 Sunny 66 18.9 43 6.1 43 43 Calm 30.08 1019 10 16 0.00 0.00
6:53 pm 18:53 Sunny 59 15 50 10 72 72 VRB 5 7 30.07 1018 10 16 0.00 0.00
7:53 pm 19:53 Clear 53 11.7 49 9.4 86 86 Calm 30.08 1019 10 16 0.00 0.00
8:53 pm 20:53 Clear 51 10.6 47 8.3 86 86 Calm 30.09 1019 10 16 0.00 0.00
9:53 pm 21:53 Clear 48 8.9 46 7.8 93 93 Calm 30.09 1019 10 16 0.00 0.00
10:53 pm 22:53 Clear 46 7.8 45 7.2 96 96 Calm 30.09 1019 9 14 0.00 0.00
11:37 pm 23:37 Clear with Mist and Fog 45 7.2 44 6.7 97 97 Calm 30.09 1019 2 3 0.00 0.00
11:46 pm 23:46 Clear with Mist and Fog 46 7.8 45 7.2 96 96 Calm 30.09 1019 3 5 0.00 0.00
11:53 pm 23:53 Clear 46 7.8 45 7.2 96 96 Calm 30.08 1019 9 14 0.00 0.00

Powered by AerisWeather